Weather in Myrkayskoye

Russia / Kurgan Oblast     55°02′31″N   63°47′10″E
temp.,
°C
wind,
m/s
gust,
m/s
humid.,
%
clouds,
%
prec.,
mm/h
press.,
hPa
HPBL,
m
8 may, sat
sat823:00+12s33445 0.0 102023
02:00+11ssw224789 0.0 102012
05:00+10sse224984 0.0 102010
08:00+15sse2341100 0.0 1019219
11:00+19se3326100 0.0 10181935
14:00+20se3324100 0.0 10172300
17:00+20se222499 0.0 10162246
20:00+17e1134100 0.0 101511
9 may, sun
sun923:00+15n3337100 0.0 101522
02:00+14ne3439100 0.0 101453
05:00+13nne3645100 0.0 101497
08:00+16ne4743100 0.0 1014266
11:00+19ene5735100 0.0 1014790
14:00+21e5933100 0.0 10142841
17:00+17ene91346100 0.3 10161478
20:00+14e3661100 0.3 1018265
10 may, mon
mon1023:00+13n3367100 0.3 101855
02:00+13nne5116396 0.0 1018254
05:00+10ne4116520 0.0 1020240
08:00+14ene684824 0.0 1021574
11:00+17ene7834100 0.0 10221332
14:00+18ene6729100 0.0 10221622
17:00+19ene6727100 0.0 10231860
20:00+15ene3641100 0.0 102495
11 may, tue
tue1123:00+12ene344581 0.0 102547
02:00+10ese22500 0.0 102610
05:00+9se22540 0.0 102710
08:00+14se22415 0.0 1028295
11:00+18ese1131100 0.0 10281452
14:00+20wsw0026100 0.0 10271737
17:00+20wnw2225100 0.0 10271942
20:00+18nw1136100 0.0 102711
12 may, wed
wed1223:00+16n1138100 0.0 102711
02:00+13w22425 0.0 102810
05:00+12nw33485 0.0 102821
08:00+16nnw3443100 0.0 1028254
11:00+19n5552100 0.0 1028932
14:00+20nnw5639100 0.0 10281662
17:00+20n5628100 0.0 10281694
20:00+16n3447100 0.0 102864